Stations météo

réclame
Mon MeteoGroup
Manston, Grande-Bretagne (3797): Température de l'air & dewpoint: 18.09.2019 10:00:00 - 24.09.2019 10:00:00 (BST)Manston, Grande-Bretagne (3797): Température de l'air -20cm & Température de l'air -100cm: 18.09.2019 10:00:00 - 24.09.2019 10:00:00 (BST)Manston, Grande-Bretagne (3797): Vitesse du vent & gusts: 18.09.2019 10:00:00 - 24.09.2019 10:00:00 (BST)Manston, Grande-Bretagne (3797): Direction du vent: 18.09.2019 10:00:00 - 24.09.2019 10:00:00 (BST)Manston, Grande-Bretagne (3797): reduced air pressure: 18.09.2019 10:00:00 - 24.09.2019 10:00:00 (BST)Manston, Grande-Bretagne (3797): visibility: 18.09.2019 10:00:00 - 24.09.2019 10:00:00 (BST)Manston, Grande-Bretagne (3797): Ensoleillement: 18.09.2019 10:00:00 - 24.09.2019 10:00:00 (BST)Manston, Grande-Bretagne (3797): Quantités de précipitations: 18.09.2019 10:00:00 - 24.09.2019 10:00:00 (BST)
Date & Time tt [°C] td [°C] tt -20cm [°C] tt -100cm [°C] ff [km/h] ff [knt] fx [km/h] fx [knt] dd ppp [hPa] vv [km] sd [min] rr [mm]
24.09.2019 10:00:00 15,3 14,5 - - 31 17 - - SSE 1003,0 11 0 -
24.09.2019 09:00:00 15,2 14,5 - - 26 14 - - SSE 1003,8 15 0 0,2
24.09.2019 08:00:00 15,8 14,7 - - 21 11 - - SSE 1004,3 12 0 0,2
24.09.2019 07:00:00 15,6 14,8 - - 22 12 - - S 1005,1 27 0 0,6
24.09.2019 06:00:00 15,6 14,8 - - 22 12 - - S 1005,8 18 0 0,2
24.09.2019 05:00:00 15,7 14,9 - - 21 11 - - S 1006,7 5 0 0,0
24.09.2019 04:00:00 15,9 15,0 - - 24 13 - - S 1007,9 29 0 0,0
24.09.2019 03:00:00 15,8 15,0 - - 15 8 - - S 1008,2 12 0 0,0
24.09.2019 02:00:00 15,7 15,0 - - 21 11 - - S 1009,1 10 0 0,0
24.09.2019 01:00:00 15,7 14,9 - - 22 12 - - S 1009,6 25 - 0,0
24.09.2019 00:00:00 15,6 14,9 - - 22 12 - - S 1010,1 13 0 0,0
23.09.2019 23:00:00 15,6 14,7 - - 26 14 - - S 1010,8 6 0 0,2
23.09.2019 22:00:00 16,1 13,7 - - 28 15 - - S 1011,1 30 0 0,0
23.09.2019 21:00:00 15,9 13,3 - - 22 12 - - S 1011,7 50 0 0,6
23.09.2019 20:00:00 15,7 13,9 - - 15 8 - - SSE 1012,2 30 0 0,2
23.09.2019 19:00:00 15,7 13,8 - - 16 9 - - SSE 1012,1 26 0 0,4
23.09.2019 18:00:00 17,0 13,0 - - 21 11 - - S 1012,2 28 0 0,0
23.09.2019 17:00:00 17,7 12,5 - - 26 14 - - SSW 1012,5 40 6 0,0
23.09.2019 16:00:00 18,6 12,5 - - 31 17 - - S 1012,8 28 30 0,0
23.09.2019 15:00:00 19,7 11,8 - - 31 17 46 25 SSW 1012,7 35 54 0,0
23.09.2019 14:00:00 19,8 12,4 - - 31 17 - - SSW 1012,8 35 12 0,0
23.09.2019 13:00:00 18,5 11,1 - - 22 12 - - SSW 1012,8 30 18 0,0
23.09.2019 12:00:00 20,4 11,3 - - 21 11 - - SSW 1012,7 26 60 0,0
23.09.2019 11:00:00 18,7 9,3 - - 24 13 - - SW 1012,7 30 60 0,0
23.09.2019 10:00:00 16,9 10,8 16,0 15,2 28 15 - - WSW 1012,7 30 60 0,0
23.09.2019 09:00:00 15,4 12,5 - - 21 11 - - SW 1011,9 35 48 0,0
23.09.2019 08:00:00 14,1 12,4 - - 16 9 - - SW 1011,6 35 0 0,0
23.09.2019 07:00:00 13,5 12,4 - - 13 7 - - SW 1011,0 50 0 0,0
23.09.2019 06:00:00 13,6 12,7 - - 15 8 - - SW 1010,3 30 0 0,0
23.09.2019 05:00:00 13,1 12,0 - - 13 7 - - S 1009,6 35 0 0,0
23.09.2019 04:00:00 13,1 11,5 - - 9 5 - - S 1009,3 50 0 0,0
23.09.2019 03:00:00 14,3 12,1 - - 13 7 - - SSW 1009,1 45 0 0,0
23.09.2019 02:00:00 15,1 12,9 - - 16 9 - - SSW 1008,9 45 0 0,0
23.09.2019 01:00:00 15,6 13,9 - - 13 7 - - S 1008,5 40 - 0,0
23.09.2019 00:00:00 15,6 14,5 - - 9 5 - - SSE 1008,3 40 0 0,0
22.09.2019 23:00:00 15,4 14,2 - - 9 5 - - S 1008,0 45 0 0,0
22.09.2019 22:00:00 15,3 14,0 - - 9 5 - - SSE 1007,5 45 0 0,0
22.09.2019 21:00:00 15,8 13,8 - - 9 5 - - S 1007,3 50 0 0,0
22.09.2019 20:00:00 16,4 14,1 - - 13 7 - - SSW 1006,9 50 0 0,0
22.09.2019 19:00:00 16,8 14,2 - - 18 10 - - SSW 1006,4 45 0 0,0
22.09.2019 18:00:00 16,7 14,3 - - 16 9 - - SSW 1006,1 50 0 0,2
22.09.2019 17:00:00 17,0 14,1 - - 22 12 - - SSW 1006,0 45 0 0,0
22.09.2019 16:00:00 17,2 14,9 - - 21 11 48 26 SW 1005,4 50 0 0,2
22.09.2019 15:00:00 19,4 13,8 - - 31 17 46 25 SW 1004,8 50 0 0,0
22.09.2019 14:00:00 22,2 14,7 - - 28 15 - - S 1003,9 40 36 0,0
22.09.2019 13:00:00 22,0 15,3 - - 31 17 - - SSW 1004,2 27 24 0,0
22.09.2019 12:00:00 21,8 14,7 - - 26 14 - - SSW 1004,2 45 18 0,0
22.09.2019 11:00:00 23,5 14,6 - - 24 13 - - S 1004,3 50 48 0,0
22.09.2019 10:00:00 21,7 14,5 16,0 15,2 15 8 - - S 1004,4 40 6 0,0
22.09.2019 09:00:00 20,4 14,7 - - 15 8 - - SSE 1004,2 35 6 0,0
22.09.2019 08:00:00 18,1 14,4 - - 15 8 - - SSE 1004,5 50 0 0,0
22.09.2019 07:00:00 16,9 14,2 - - 18 10 - - SE 1004,7 45 0 0,0
22.09.2019 06:00:00 17,2 14,0 - - 21 11 - - SE 1004,9 40 0 0,0
22.09.2019 05:00:00 16,8 13,5 - - 18 10 - - SE 1005,2 30 0 0,0
22.09.2019 04:00:00 17,2 13,5 - - 18 10 - - SE 1005,8 35 0 0,0
22.09.2019 03:00:00 17,8 13,5 - - 22 12 - - ESE 1006,3 50 0 0,0
22.09.2019 02:00:00 17,9 13,8 - - 22 12 - - ESE 1007,0 45 0 0,0
22.09.2019 01:00:00 18,2 13,6 - - 21 11 - - ESE 1007,4 40 - 0,0
22.09.2019 00:00:00 18,1 13,6 - - 21 11 - - ESE 1007,9 45 0 0,0
21.09.2019 23:00:00 18,6 13,6 - - 21 11 - - ESE 1008,4 35 0 0,0
21.09.2019 22:00:00 19,6 13,5 - - 21 11 - - SE 1009,1 50 0 0,0
21.09.2019 21:00:00 19,7 13,3 - - 21 11 - - ESE 1009,3 45 0 0,0
21.09.2019 20:00:00 17,6 13,2 - - 16 9 - - E 1009,6 50 0 0,0
21.09.2019 19:00:00 19,0 12,9 - - 16 9 - - E 1009,8 45 36 0,0
21.09.2019 18:00:00 20,7 11,8 - - 15 8 - - E 1010,2 40 60 0,0
21.09.2019 17:00:00 21,5 10,3 - - 18 10 - - E 1010,7 30 60 0,0
21.09.2019 16:00:00 21,7 10,0 - - 18 10 - - E 1011,5 30 60 0,0
21.09.2019 15:00:00 20,5 9,0 - - 22 12 - - E 1012,4 19 60 0,0
21.09.2019 14:00:00 20,0 8,6 - - 22 12 - - ESE 1013,0 19 60 0,0
21.09.2019 13:00:00 18,6 7,9 - - 22 12 - - ESE 1013,9 35 60 0,0
21.09.2019 12:00:00 17,8 7,9 - - 24 13 - - ESE 1014,3 30 60 0,0
21.09.2019 11:00:00 18,0 7,8 - - 24 13 - - ESE 1015,0 35 60 0,0
21.09.2019 10:00:00 16,7 7,3 15,4 15,4 28 15 - - ESE 1015,6 30 60 0,0
21.09.2019 09:00:00 15,5 7,0 - - 29 16 - - ESE 1016,0 40 60 0,0
21.09.2019 08:00:00 14,9 7,2 - - 26 14 - - SE 1016,4 40 54 0,0
21.09.2019 07:00:00 14,0 7,7 - - 26 14 - - ESE 1016,5 40 0 0,0
21.09.2019 06:00:00 14,2 7,1 - - 24 13 - - ESE 1016,6 50 0 0,0
21.09.2019 05:00:00 14,5 7,7 - - 24 13 - - ESE 1017,1 50 0 0,0
21.09.2019 04:00:00 14,8 7,8 - - 26 14 - - ESE 1017,8 50 0 0,0
21.09.2019 03:00:00 15,1 8,1 - - 26 14 - - ESE 1018,4 50 0 0,0
21.09.2019 02:00:00 15,1 8,7 - - 26 14 - - ESE 1019,2 40 0 0,0
21.09.2019 01:00:00 15,6 8,4 - - 28 15 - - ESE 1019,6 40 - 0,0
21.09.2019 00:00:00 16,0 7,9 - - 31 17 48 26 ESE 1020,2 40 0 0,0
20.09.2019 23:00:00 16,3 7,2 - - 34 18 - - E 1020,6 50 0 0,0
20.09.2019 22:00:00 16,4 7,1 - - 29 16 50 27 E 1021,0 40 0 0,0
20.09.2019 21:00:00 16,5 10,2 - - 31 17 - - E 1021,5 30 0 0,0
20.09.2019 20:00:00 16,2 10,2 - - 29 16 - - E 1021,8 35 0 0,0
20.09.2019 19:00:00 16,1 9,9 - - 26 14 - - E 1022,3 35 48 0,0
20.09.2019 18:00:00 16,7 9,2 - - 26 14 - - ENE 1023,0 30 60 0,0
20.09.2019 17:00:00 16,8 8,7 - - 28 15 - - ENE 1023,6 30 60 0,0
20.09.2019 16:00:00 17,3 7,6 - - 28 15 - - ENE 1024,5 30 60 0,0
20.09.2019 15:00:00 17,6 6,7 - - 28 15 - - E 1025,5 35 60 0,0
20.09.2019 14:00:00 18,2 6,6 - - 24 13 - - E 1026,2 35 60 0,0
20.09.2019 13:00:00 18,1 6,4 - - 24 13 - - E 1026,8 35 60 0,0
20.09.2019 12:00:00 18,0 6,4 - - 26 14 - - E 1027,3 27 60 0,0
20.09.2019 11:00:00 17,3 7,0 - - 26 14 - - ESE 1028,2 24 60 0,0
20.09.2019 10:00:00 16,7 8,0 15,2 15,5 26 14 - - ESE 1028,7 40 60 0,0
20.09.2019 09:00:00 16,0 8,4 - - 22 12 - - ESE 1028,6 35 60 0,0
20.09.2019 08:00:00 14,6 8,6 - - 18 10 - - E 1028,4 35 48 0,0
20.09.2019 07:00:00 10,9 7,8 - - 13 7 - - E 1028,4 50 0 0,0
20.09.2019 06:00:00 11,8 8,3 - - 15 8 - - E 1028,3 45 0 0,0
20.09.2019 05:00:00 11,8 8,5 - - 15 8 - - E 1028,9 45 0 0,0
20.09.2019 04:00:00 12,8 9,3 - - 15 8 - - ESE 1029,4 45 0 0,0
20.09.2019 03:00:00 13,3 10,4 - - 15 8 - - E 1029,7 50 0 0,0
20.09.2019 02:00:00 13,4 10,1 - - 16 9 - - ESE 1030,2 45 0 0,0
20.09.2019 01:00:00 14,6 11,3 - - 13 7 - - E 1030,2 50 - 0,0
20.09.2019 00:00:00 13,7 10,6 - - 13 7 - - E 1030,5 50 0 0,0
19.09.2019 23:00:00 13,1 10,6 - - 11 6 - - E 1030,5 50 0 0,0
19.09.2019 22:00:00 11,9 9,1 - - 8 4 - - ENE 1030,8 40 0 0,0
19.09.2019 21:00:00 13,0 9,6 - - 9 5 - - ENE 1030,9 35 0 0,0
19.09.2019 20:00:00 13,6 9,5 - - 9 5 - - NE 1030,7 40 0 0,0
19.09.2019 19:00:00 14,6 9,4 - - 11 6 - - ENE 1030,6 50 54 0,0
19.09.2019 18:00:00 15,9 9,3 - - 13 7 - - NE 1030,5 45 60 0,0
19.09.2019 17:00:00 16,7 9,2 - - 15 8 - - NE 1030,8 35 60 0,0
19.09.2019 16:00:00 17,1 8,1 - - 15 8 - - ENE 1031,0 35 54 0,0
19.09.2019 15:00:00 17,7 9,4 - - 13 7 - - ENE 1031,2 35 30 0,0
19.09.2019 14:00:00 17,1 9,1 - - 13 7 - - NE 1031,5 35 42 0,0
19.09.2019 13:00:00 17,9 9,2 - - 15 8 - - NE 1031,9 22 54 0,0
19.09.2019 12:00:00 17,6 9,2 - - 16 9 - - NNE 1031,9 26 48 0,0
19.09.2019 11:00:00 16,5 8,4 - - 16 9 - - NNE 1032,0 23 36 0,0
19.09.2019 10:00:00 15,5 8,3 15,2 15,7 15 8 - - NNE 1032,1 45 12 0,0
19.09.2019 09:00:00 15,9 9,1 - - 15 8 - - NNE 1031,7 28 24 0,0
19.09.2019 08:00:00 13,3 10,5 - - 5 3 - - NW 1031,3 28 36 0,0
19.09.2019 07:00:00 10,3 7,9 - - 5 3 - - WNW 1030,9 40 0 0,0
19.09.2019 06:00:00 10,7 8,0 - - 5 3 - - NE 1030,5 50 0 0,0
19.09.2019 05:00:00 11,0 8,0 - - 5 3 - - ENE 1030,3 45 0 0,0
19.09.2019 04:00:00 10,3 7,4 - - 5 3 - - NE 1030,6 50 0 0,0
19.09.2019 03:00:00 10,6 7,0 - - 8 4 - - NE 1030,7 50 0 0,0
19.09.2019 02:00:00 11,3 7,2 - - 8 4 - - ENE 1030,7 50 0 0,0
19.09.2019 01:00:00 10,9 6,6 - - 8 4 - - ENE 1030,8 50 - 0,0
19.09.2019 00:00:00 11,0 6,6 - - 8 4 - - ENE 1030,7 50 0 0,0
18.09.2019 23:00:00 10,8 6,2 - - 8 4 - - ENE 1030,6 45 0 0,0
18.09.2019 22:00:00 12,2 7,0 - - 9 5 - - NE 1030,3 40 0 0,0
18.09.2019 21:00:00 12,7 7,4 - - 11 6 - - ENE 1030,0 45 0 0,0
18.09.2019 20:00:00 13,3 6,8 - - 11 6 - - NE 1029,7 50 0 0,0
18.09.2019 19:00:00 14,1 6,6 - - 15 8 - - NE 1029,3 50 48 0,0
18.09.2019 18:00:00 15,2 7,0 - - 16 9 - - NNE 1029,3 30 60 0,0
18.09.2019 17:00:00 15,6 6,7 - - 18 10 - - NE 1029,2 40 60 0,0
18.09.2019 16:00:00 16,2 5,6 - - 18 10 - - NNE 1029,4 50 60 0,0
18.09.2019 15:00:00 15,9 6,4 - - 16 9 - - NNE 1029,6 25 60 0,0
18.09.2019 14:00:00 15,8 6,3 - - 18 10 - - NNE 1029,7 40 60 0,0
18.09.2019 13:00:00 16,3 6,6 - - 21 11 - - N 1029,9 35 54 0,0
18.09.2019 12:00:00 16,2 7,7 - - 21 11 - - NNE 1029,9 30 54 0,0
18.09.2019 11:00:00 15,5 7,6 - - 21 11 - - NNE 1029,9 20 60 0,0
18.09.2019 10:00:00 14,8 8,2 15,7 15,7 22 12 - - N 1029,9 35 60 0,0

tt = Température de l'air
td = dewpoint
tt -20cm = Température de l'air -20cm
tt -100cm = Température de l'air -100cm
ff = Vitesse du vent
fx = gusts
dd = Direction du vent
ppp = reduced air pressure
vv = visibility
sd = Ensoleillement
rr = Quantités de précipitations

stations d'obs. à proximité